• Processing (Info)

  • MPEC 2023-J106 : 2023 JX

    The following Minor Planet Electronic Circular may be linked-to from your own Web pages, but must not otherwise be redistributed electronically.

    A form allowing access to any MPEC is at the bottom of this page.


    Read MPEC 2023-J105 Read MPEC 2023-J107


    M.P.E.C. 2023-J106                                 Issued 2023 May 12, 11:25 UT
    
         The Minor Planet Electronic Circulars contain information on unusual
             minor planets, routine data on comets and natural satellites,
             and occasional editorial announcements.  They are published
        on behalf of Division F of the International Astronomical Union by the
              Minor Planet Center, Smithsonian Astrophysical Observatory,
                              Cambridge, MA 02138, U.S.A.
    			  
                 Prepared using the Tamkin Foundation Computer Network
    
                                  MPC@CFA.HARVARD.EDU
                URL https://www.minorplanetcenter.net/    ISSN 1523-6714
    
                                     2023 JX                                 
    
    
    Observations:
         K23J00X* C2023 05 10.17932412 55 33.776+27 52 50.84         21.67GVEJ106V00
         K23J00X  C2023 05 10.18493712 55 34.424+27 52 22.33         21.38GVEJ106V00
         K23J00X  C2023 05 10.19045012 55 35.051+27 51 53.86         21.55GVEJ106V00
         K23J00X  C2023 05 10.19596612 55 35.663+27 51 26.10         21.32GVEJ106V00
         K23J00X KC2023 05 10.29854 12 55 47.27 +27 42 39.8          21.9 RoEJ106291
         K23J00X KC2023 05 10.30755 12 55 48.33 +27 41 52.8          21.3 RoEJ106291
         K23J00X KC2023 05 10.31409 12 55 49.02 +27 41 18.5          21.3 RVEJ106691
         K23J00X KC2023 05 10.33658 12 55 51.67 +27 39 22.2          21.9 RVEJ106691
         K23J00X KC2023 05 11.15519612 57 37.220+26 29 56.47         21.37GVEJ106I52
         K23J00X KC2023 05 11.15907112 57 37.663+26 29 37.10         21.41GVEJ106I52
         K23J00X KC2023 05 11.16296212 57 38.099+26 29 17.74         21.09GVEJ106I52
         K23J00X KC2023 05 11.16685312 57 38.534+26 28 57.76         21.46GVEJ106I52
         K23J00X  C2023 05 12.15447912 59 40.823+25 05 48.13         21.3 GVEJ106H01
         K23J00X  C2023 05 12.16071512 59 41.512+25 05 16.78         21.4 GVEJ106H01
         K23J00X  C2023 05 12.16920312 59 42.436+25 04 34.32         21.2 GVEJ106H01
         K23J00X  C2023 05 12.17544112 59 43.110+25 04 03.04         21.1 GVEJ106H01
         K23J00X 1C2023 05 12.21107512 59 47.144+25 01 05.16         21.54GVEJ106G96
         K23J00X 1C2023 05 12.21621012 59 47.684+25 00 39.71         21.11GVEJ106G96
         K23J00X 1C2023 05 12.22136412 59 48.242+25 00 13.25         21.25GVEJ106G96
         K23J00X 1C2023 05 12.22653312 59 48.815+24 59 47.47         21.11GVEJ106G96
    
    Observer details:
    291 LPL/Spacewatch II.  Observer T. H. Bressi.  1.8-m f/2.7 reflector + CCD.
    691 Steward Observatory, Kitt Peak-Spacewatch.  Observer T. H. Bressi.  0.9-m
        f/3 reflector + CCD.
    G96 Mt. Lemmon Survey.  Observer G. J. Leonard.  Measurers E. J. Christensen,
        D. Fay, J. B. Fazekas, D. C. Fuls, A. R. Gibbs, A. D. Grauer, H. Groeller,
        J. K. Hogan, R. A. Kowalski, S. M. Larson, G. J. Leonard, D. Rankin, R. L.
        Seaman, A. Serrano, F. C. Shelly, K. W. Wierzchos.  1.5-m reflector + 10K
        CCD.
    H01 Magdalena Ridge Observatory, Socorro.  Observers W. H. Ryan, E. V. Ryan.
        Measurer W. H. Ryan.  2.4-m f/8.9 Ritchey-Chretien + CCD.
    I52 Steward Observatory, Mt. Lemmon Station.  Observer R. A. Kowalski.
        Measurers E. J. Christensen, D. Fay, J. B. Fazekas, D. C. Fuls, A. R.
        Gibbs, A. D. Grauer, H. Groeller, J. K. Hogan, R. A. Kowalski, S. M.
        Larson, G. J. Leonard, D. Rankin, R. L. Seaman, A. Serrano, F. C. Shelly,
        K. W. Wierzchos.  1.0-m prime focus + CCD.
    V00 Kitt Peak-Bok.  Observers H. Groeller, K. W. Wierzchos.  Measurers M. J.
        Brucker, E. J. Christensen, C. E. Woodward, D. Fay, J. B. Fazekas, D. C.
        Fuls, A. R. Gibbs, A. D. Grauer, H. Groeller, J. K. Hogan, R. A. Kowalski,
        S. M. Larson, G. J. Leonard, R. S. McMillan, D. Rankin, R. L. Seaman, A.
        Serrano, F. C. Shelly, K. W. Wierzchos.  2.25-m reflector + 4x4K mosaic
        CCD.
    
    Orbital elements:
    2023 JX                                                  Earth MOID = 0.1865 AU
    Epoch 2023 Feb. 25.0 TT = JDT 2460000.5                 Veres                   
    M 348.39579              (2000.0)            P               Q                  
    n   0.46574685     Peri.   99.29212     -0.97159718     -0.13951789             
    a   1.6482994      Node    72.86830     +0.04123871     -0.89517888             
    e   0.3568464      Incl.   11.53768     +0.23301995     -0.42330784             
    P   2.12           H   22.69          G   0.15           U   9                  
    Residuals in seconds of arc
    230510 V00  0.1-  0.1+    230510 691  0.2+  1.0-    230512 H01  0.0   0.0
    230510 V00  0.1+  0.1+    230511 I52  0.2-  0.2-    230512 H01  0.0   0.0
    230510 V00  0.1+  0.2-    230511 I52  0.1-  0.0     230512 G96  0.2+  0.0
    230510 V00  0.0   0.2+    230511 I52  0.1-  0.3+    230512 G96  0.1-  0.4+
    230510 291  0.2-  0.0     230511 I52  0.0   0.1-    230512 G96  0.1-  0.2-
    230510 291  0.2+  0.6-    230512 H01  0.0   0.1+    230512 G96  0.1+  0.0
    230510 691  0.4-  1.0-    230512 H01  0.1+  0.1-
    
    Ephemeris:
    2023 JX                  a,e,i = 1.65, 0.36, 12                  q = 1.0601
    Date    TT    R. A. (2000) Decl.     Delta      r    Elong.  Phase     V
    2023 04 12    11 18 46.6 +64 31 17   0.2318  1.0806   103.7    64.3    22.0
    ...
    2023 04 27    12 22 16.2 +46 44 12   0.2240  1.1181   114.6    54.9    21.7
    ...
    2023 05 05    12 43 53.0 +35 20 24   0.2309  1.1446   121.1    49.0    21.6
    ...
    2023 05 11    12 57 16.9 +26 43 13   0.2428  1.1669   125.3    44.9    21.7
    2023 05 12    12 59 21.1 +25 18 55   0.2454  1.1708   125.9    44.3    21.7
    2023 05 13    13 01 23.0 +23 55 27   0.2482  1.1748   126.5    43.8    21.7
    ...
    2023 05 19    13 12 57.1 +15 57 21   0.2687  1.1995   129.2    40.8    21.8
    ...
    2023 05 27    13 27 20.3 +06 36 58   0.3057  1.2347   130.8    38.4    22.1
    ...
    2023 06 11    13 53 15.8 -06 36 52   0.4017  1.3058   129.0    37.2    22.8
    
    M. P. C. Staff               (C) Copyright 2023 MPC           M.P.E.C. 2023-J106
    


    Read MPEC 2023-J105 Read MPEC 2023-J107


    MPEC number:

    Enter an MPEC number in one of the following forms:

    • 1997-B01 (the full form)
    • J97B01 (the packed version of the full form)
    • B01 (the abbreviated form)